Weather History for Hamilton, OH

Change the Weather History Date:

Wednesday, December 5, 2012

  Actual Average (KCVG) Record (KCVG)
Temperature  
Mean Temperature 38 °F 37 °F  
Max Temperature 46 °F 45 °F 70 °F (2001)
Min Temperature 25 °F 29 °F 9 °F (1886)
Degree Days  
Heating Degree Days 27 28  
Month to date heating degree days 136  
Since 1 July heating degree days 1096  
Cooling Degree Days 0 0  
Month to date cooling degree days 0  
Year to date cooling degree days 1121  
Moisture  
Dew Point 33 °F    
Average Humidity 87    
Maximum Humidity 100    
Minimum Humidity 54    
Precipitation  
Precipitation 0.00 in 0.11 in 2.76 in (2011)
Month to date precipitation 0.55  
Year to date precipitation 39.70  
Snow  
Snow 0.00 in 0.10 in 6.40 in (1984)
Month to date snowfall 0.5  
Since 1 July snowfall 1.3  
Snow Depth -    
Sea Level Pressure  
Sea Level Pressure 30.31 in    
Wind  
Wind Speed 2 mph (North)    
Max Wind Speed 10 mph    
Max Gust Speed -    
Visibility 5 miles    
Events Fog    
T = Trace of Precipitation, MM = Missing Value Source: NWS Daily Summary

Daily Weather History Graph

Daily Weather History Graph

Search for Another Location

Airport:

Trip Planner

Search our weather history database for the weather conditions in past years. The results will help you decide how hot, cold, wet, or windy it might be!

Date:

Astronomy

Dec. 05, 2012 Rise Set
Actual Time 7:43 AM EST 5:14 PM EST
Civil Twilight 7:13 AM EST 5:44 PM EST
Nautical Twilight 6:39 AM EST 6:17 PM EST
Astronomical Twilight 6:07 AM EST 6:50 PM EST
Moon No Moon Rise 12:07 PM EST (12/5)
Length of Visible Light 10h 31m
Length of Day
9h 31m
Waning Gibbous, 60% of the Moon is Illuminated
Dec 5
Waning Gibbous
Dec 6
Last Quarter
Dec 13
New
Dec 20
First Quarter
Dec 28
Full

Hourly Weather History & Observations

Time (EST) Temp. Windchill Dew Point Humidity Pressure Visibility Wind Dir Wind Speed Gust Speed Precip Events Conditions
12:01 AM 37.4 °F - 35.6 °F 93% 30.22 in 1.8 mi Calm Calm - N/A   Clear
12:06 AM 37.4 °F - 35.6 °F 93% 30.23 in 0.8 mi Calm Calm - N/A   Clear
12:18 AM 35.6 °F - 33.8 °F 93% 30.23 in 1.8 mi Calm Calm - N/A   Clear
12:25 AM 35.6 °F - 33.8 °F 93% 30.23 in 2.5 mi Calm Calm - N/A   Clear
12:31 AM 35.6 °F - 33.8 °F 93% 30.23 in 0.8 mi Calm Calm - N/A   Clear
12:53 AM 36.0 °F 33.3 °F 35.1 °F 97% 30.24 in 0.8 mi NW 3.5 mph - N/A   Clear
1:02 AM 37.4 °F 33.8 °F 37.4 °F 100% 30.23 in 2.0 mi WNW 4.6 mph - N/A   Clear
1:09 AM 37.4 °F 34.9 °F 37.4 °F 100% 30.23 in 8.0 mi WNW 3.5 mph - N/A   Clear
1:53 AM 37.9 °F - 37.0 °F 97% 30.25 in 6.0 mi Calm Calm - N/A   Clear
2:30 AM 35.6 °F 32.8 °F 35.6 °F 100% 30.26 in 1.8 mi SW 3.5 mph - N/A   Clear
2:37 AM 35.6 °F 31.7 °F 33.8 °F 93% 30.26 in 1.0 mi WSW 4.6 mph - N/A   Clear
2:44 AM 35.6 °F 32.8 °F 33.8 °F 93% 30.27 in 2.0 mi West 3.5 mph - N/A   Clear
2:53 AM 35.1 °F - 34.0 °F 96% 30.28 in 1.8 mi Calm Calm - N/A   Clear
2:58 AM 35.6 °F - 35.6 °F 100% 30.27 in 0.8 mi Calm Calm - N/A   Clear
3:24 AM 33.8 °F - 33.8 °F 100% 30.27 in 0.2 mi Calm Calm - N/A Fog Fog
3:53 AM 32.0 °F - 32.0 °F 100% 30.29 in 0.2 mi Calm Calm - N/A Fog Fog
4:53 AM 30.9 °F - 30.0 °F 96% 30.30 in 0.2 mi Calm Calm - N/A Fog Light Freezing Fog
5:53 AM 30.9 °F - 30.0 °F 96% 30.31 in 0.5 mi Calm Calm - N/A Fog Light Freezing Fog
6:44 AM 32.0 °F - 30.2 °F 93% 30.31 in 1.0 mi Calm Calm - N/A   Mist
6:53 AM 30.9 °F - 30.0 °F 96% 30.33 in 0.5 mi Calm Calm - N/A Fog Light Freezing Fog
7:53 AM 30.9 °F - 30.0 °F 96% 30.35 in 0.2 mi Calm Calm - N/A Fog Light Freezing Fog
9:40 AM 35.6 °F - 35.6 °F 100% 30.37 in 1.5 mi Calm Calm - N/A   Scattered Clouds
9:42 AM 37.4 °F - 37.4 °F 100% 30.37 in 3.0 mi Calm Calm - N/A   Scattered Clouds
9:53 AM 39.0 °F 34.8 °F 37.0 °F 93% 30.39 in 10.0 mi Variable 5.8 mph - N/A   Partly Cloudy
10:53 AM 45.0 °F 41.2 °F 37.0 °F 74% 30.40 in 10.0 mi North 6.9 mph - N/A   Clear
11:53 AM 46.0 °F 41.9 °F 36.0 °F 68% 30.39 in 10.0 mi NNW 8.1 mph - N/A   Clear
12:53 PM 46.0 °F 41.0 °F 32.0 °F 58% 30.37 in 10.0 mi North 10.4 mph - N/A   Clear
1:53 PM 46.9 °F - 30.9 °F 54% 30.35 in 10.0 mi North 6.9 mph - N/A   Clear
2:53 PM 45.0 °F 41.8 °F 32.0 °F 60% 30.36 in 10.0 mi Variable 5.8 mph - N/A   Clear
3:53 PM 45.0 °F 41.2 °F 30.9 °F 58% 30.35 in 10.0 mi NE 6.9 mph - N/A   Clear
4:53 PM 42.1 °F 38.4 °F 30.0 °F 62% 30.36 in 10.0 mi NE 5.8 mph - N/A   Clear
5:53 PM 37.0 °F 32.4 °F 28.9 °F 73% 30.36 in 10.0 mi NNE 5.8 mph - N/A   Clear
7:53 PM 36.0 °F 30.3 °F 28.0 °F 73% 30.35 in 10.0 mi NE 6.9 mph - N/A   Clear
8:53 PM 34.0 °F 28.8 °F 27.0 °F 75% 30.37 in 10.0 mi ENE 5.8 mph - N/A   Clear
9:53 PM 30.9 °F 27.5 °F 25.0 °F 79% 30.36 in 10.0 mi ENE 3.5 mph - N/A   Clear
10:53 PM 30.0 °F 25.2 °F 24.1 °F 79% 30.34 in 10.0 mi ENE 4.6 mph - N/A   Clear
11:53 PM 25.0 °F 20.7 °F 23.0 °F 92% 30.34 in 10.0 mi ENE 3.5 mph - N/A   Clear